DW8508 Weather Reports


Display with metric or nautical units.
time (UTC)temp
F
wind
direction
speed
MPH
gust
MPH
rain 1hr
in
rain 24hr
in
rain mn
in
humidity
%
barometer
mb
20260507084527 0 0.0 0.0 0.00 0.00 0.00 1021.6
20260507083022 0 0.0 0.0 0.00 0.00 0.00 1021.6
20260507081520 0 0.0 0.0 0.00 0.00 0.00 1021.5
20260507080013 0 0.0 0.0 0.00 0.00 0.00 1021.5
20260507074551 0 0.0 0.0 0.00 0.00 0.00 1021.5
20260507073058 0 0.0 0.0 0.00 0.00 0.00 1021.4
20260507071525 0 0.0 0.0 0.00 0.00 0.00 1021.5
20260507070020 0 0.0 0.0 0.00 0.00 0.00 1021.6
20260507064505 0 0.0 0.0 0.00 0.00 0.00 1021.6
20260507063102 0 0.0 0.0 0.00 0.00 0.00 1021.6
20260507061555 0 0.0 0.0 0.00 0.00 0.00 1021.5
20260507060050 0 0.0 0.0 0.00 0.00 0.00 1021.5
20260507054551 0 0.0 0.0 0.00 0.00 0.00 1021.5
20260507053043 0 0.0 0.0 0.00 0.00 0.00 1021.4
20260507051535 0 0.0 0.0 0.00 0.00 0.00 1021.2
20260507050034 0 0.0 0.0 0.00 0.00 0.00 1021.1
20260507044523 0 0.0 0.0 0.00 0.00 0.00 1021.0
20260507043006 0 0.0 0.0 0.00 0.00 0.00 1021.0
20260507041550 0 0.0 0.0 0.00 0.00 0.00 1020.8
20260507040049 0 0.0 0.0 0.00 0.00 0.00 1020.8
20260507034545 0 0.0 0.0 0.00 0.00 0.00 1020.7
20260507033035 0 0.0 0.0 0.00 0.00 0.00 1020.6
20260507031530 0 0.0 0.0 0.00 0.00 0.00 1020.6
20260507030026 -90 109 0.0 0.0 0.00 0.00 0.00 1020.6
20260507024522 -90 109 0.0 0.0 0.00 0.00 0.00 1020.5
20260507023117 -90 109 0.0 0.0 0.00 0.00 0.00 1020.3
20260507021502 -90 109 0.0 0.0 0.00 0.00 0.00 1020.4
20260507020106 -90 109 0.0 0.0 0.00 0.00 0.00 1020.3
20260507014612 -90 109 0.0 0.0 0.00 0.00 0.00 1020.2
20260507013054 -90 109 0.0 0.0 0.00 0.00 0.00 1020.2
20260507011546 -90 109 0.0 0.0 0.00 0.00 0.00 1020.2
20260507010045 -90 109 0.0 0.0 0.00 0.00 0.00 1020.2
20260507004540 -90 109 0.0 0.0 0.00 0.00 0.00 1020.1
20260507003032 -90 109 0.0 0.0 0.00 0.00 0.00 1020.2
20260507001527 -90 109 0.0 0.0 0.00 0.00 0.00 1020.1
20260507000005 -90 109 0.0 0.0 0.00 0.00 0.00 1020.1
20260506234501 -90 109 0.0 0.0 0.00 0.00 0.00 1020.1
20260506233052 -90 109 0.0 0.0 0.00 0.00 0.00 1020.1
20260506231541 -90 109 0.0 0.0 0.00 0.00 0.00 1020.1
20260506230037 -90 109 0.0 0.0 0.00 0.00 0.00 1020.2
20260506224536 -90 109 0.0 0.0 0.00 0.00 0.00 1020.3
20260506223030 -90 108 0.0 0.0 0.00 0.00 0.00 1020.1
20260506221527 -90 108 0.0 0.0 0.00 0.00 0.00 1020.1
20260506220027 -90 108 0.0 0.0 0.00 0.00 0.00 1020.2
20260506214516 -90 106 0.0 0.0 0.00 0.00 0.00 1020.2
20260506213101 -90 107 0.0 0.0 0.00 0.00 0.00 1020.2
20260506211556 -90 50 0.0 0.0 0.00 0.00 0.00 1020.3
20260506210052 -90 44 0.0 0.0 0.00 0.00 0.00 1020.1
20260506204547 -90 44 0.0 0.0 0.00 0.00 0.00 1020.1
20260506203049 -90 44 0.0 0.0 0.00 0.00 0.00 1020.1
20260506201550 -90 44 0.0 0.0 0.00 0.00 0.00 1020.0
20260506200033 -90 44 0.0 0.0 0.00 0.00 0.00 1020.1
20260506194534 -90 44 0.0 0.0 0.00 0.00 0.00 1019.9
20260506193015 -90 44 0.0 0.0 0.00 0.00 0.00 1019.9
20260506191510 -90 44 0.0 0.0 0.00 0.00 0.00 1019.8
20260506190005 -90 44 0.0 0.0 0.00 0.00 0.00 1019.7
20260506184603 -90 44 0.0 0.0 0.00 0.00 0.00 1019.6
20260506183056 -90 44 0.0 0.0 0.00 0.00 0.00 1019.5
20260506181552 -90 44 0.0 0.0 0.00 0.00 0.00 1019.4
20260506180047 -90 44 0.0 0.0 0.00 0.00 0.00 1019.3
20260506174543 -90 44 0.0 0.0 0.00 0.00 0.00 1019.1
20260506173026 -90 44 0.0 0.0 0.00 0.00 0.00 1019.0
20260506171522 -90 44 0.0 0.0 0.00 0.00 0.00 1019.1
20260506170017 -90 44 0.0 0.0 0.00 0.00 0.00 1019.1
20260506164513 -90 44 0.0 0.0 0.00 0.00 0.00 1018.9
20260506163012 -90 42 0.0 0.0 0.00 0.00 0.00 1018.8
20260506161505 -90 55 0.0 0.0 0.00 0.00 0.00 1018.8
20260506160103 -90 360 0.0 0.0 0.00 0.00 0.00 1018.8
20260506154602 -90 360 0.0 0.0 0.00 0.00 0.00 1018.8
20260506153042 -90 29 0.0 0.0 0.00 0.00 0.00 1018.9
20260506151534 -90 65 0.0 0.0 0.00 0.00 0.00 1018.9
20260506150032 -90 42 0.0 0.0 0.00 0.00 0.00 1018.9
20260506144526 -90 360 0.0 0.0 0.00 0.00 0.00 1018.9
20260506143022 -90 5 0.0 0.0 0.00 0.00 0.00 1018.8
20260506141517 -90 66 0.0 0.0 0.00 0.00 0.00 1018.9
20260506140013 -90 33 0.0 0.0 0.00 0.00 0.00 1018.9
20260506134508 -90 57 0.0 0.0 0.00 0.00 0.00 1018.9
20260506130051 -90 25 0.0 0.0 0.00 0.00 0.00 1018.9
20260506124542 -90 319 0.0 0.0 0.00 0.00 0.00 1019.0
20260506123037 -90 32 0.0 0.0 0.00 0.00 0.00 1019.1
20260506121532 -90 24 0.0 0.0 0.00 0.00 0.00 1019.2
20260506120032 -90 30 0.0 0.0 0.00 0.00 0.00 1019.3
20260506114524 -90 319 0.0 0.0 0.00 0.00 0.00 1019.4
20260506113019 -90 360 0.0 0.0 0.00 0.00 0.00 1019.5
20260506111518 -90 59 0.0 0.0 0.00 0.00 0.00 1019.5
20260506110059 -90 54 0.0 0.0 0.00 0.00 0.00 1019.4
20260506104554 -90 80 0.0 0.0 0.00 0.00 0.00 1019.4
20260506103050 -90 27 0.0 0.0 0.00 0.00 0.00 1019.4
20260506101545 -90 330 0.0 0.0 0.00 0.00 0.00 1019.5
20260506100043 -90 327 0.0 0.0 0.00 0.00 0.00 1019.5
20260506094544 -90 347 0.0 0.0 0.00 0.00 0.00 1019.5
20260506093052 -90 360 0.0 0.0 0.00 0.00 0.00 1019.4
20260506091528 -90 328 0.0 0.0 0.00 0.00 0.00 1019.4
20260506090006 -88 339 0.0 0.0 0.00 0.00 0.00 1019.5